Terug naar catalogus

COSMOS 534

ActiefMilitairLEO
NORAD 6269·PAYLOAD·🇷🇺 Russia

Gelanceerd Nov 1, 1972 vanaf Plesetsk Cosmodrome

Loading…

Volgende Passages (komende 24 uur)

TLE

VersSource: Space-Track

Epoch: Sep 14, 2026, 11:14 UTC

1 06269U 72087G   26257.46849604 -.00000017  00000-0 -37763-5 0  9991
2 06269  74.0323 277.1476 0076611 355.5898  73.9093 12.63679262484913

Volg COSMOS 534 in realtime met AllMySat

Download on the App Store